<< Return to Weather Page
Olathe, KS
on Saturday, June 16, 2012

Saturday
Previous Day Next Day
Daily Summary
 ActualAverageRecord
Temperature
Mean Temperature - 74 °F  
Max Temperature 89 °F 83 °F 96 °F (1978)
Min Temperature 68 °F 64 °F 51 °F (1969)
Degree Days
Heating Degree Days 0 0  
Month to date heating degree days 8 6  
Since 1 June heating degree days 8 6  
Since 1 July heating degree days 3815 4932  
Cooling Degree Days 14 9  
Month to date cooling degree days 124 114  
Year to date cooling degree days 384 218  
Since 1 June cooling degree days 124 114  
Growing Degree Days28 (Base - )  
Moisture
Dew Point 64 °F   
Average Humidity 67    
Maximum Humidity 90    
Minimum Humidity 43    
Precipitation
Precipitation 0.00 in 0.21 in 1.57 in (1943)
Month to date precipitation 0.33 3.40  
Year to date precipitation 11.72 18.14  
Since 1 June precipitation 0.33 3.40  
Wind
Wind Speed 8 mph   
Max Wind Speed 20 mph   
Max Gust Speed 32 mph   
Visibility 10 miles   
Events     

Key: T is trace of precipitation, MM is missing value
Source: NWS Daily Summary
Time(CDT)TemperatureDew PointHumidity Pressure Visibility Wind DirectionWind SpeedGust SpeedPrecipitationEvents Conditions
12:53 AM 69.1 °F 62.1 °F 78% 29.96 in 10.0 miles South 4.6 mph - N/A   Clear
1:53 AM 70.0 °F 62.1 °F 76% 29.96 in 10.0 miles South 4.6 mph - N/A   Clear
2:53 AM 70.0 °F 63.0 °F 78% 29.96 in 10.0 miles SSW 5.8 mph - N/A   Clear
3:53 AM 69.1 °F 63.0 °F 81% 29.94 in 10.0 miles South 4.6 mph - N/A   Clear
5:53 AM 70.0 °F 66.0 °F 87% 29.94 in 10.0 miles SSW 4.6 mph - N/A   Clear
6:53 AM 71.1 °F 66.9 °F 87% 29.97 in 10.0 miles SSW 5.8 mph - N/A   Clear
7:53 AM 73.0 °F 68.0 °F 84% 29.99 in 10.0 miles WSW 3.5 mph - N/A   Clear
8:53 AM 79.0 °F 69.1 °F 72% 29.99 in 10.0 miles WSW 15.0 mph 20.7 mph N/A   Scattered Clouds
9:53 AM 81.0 °F 66.9 °F 62% 29.97 in 10.0 miles SW 8.1 mph - N/A   Clear
10:53 AM 82.0 °F 64.0 °F 54% 29.94 in 10.0 miles South 6.9 mph - N/A   Clear
11:53 AM 84.9 °F 63.0 °F 48% 29.92 in 10.0 miles SSW 6.9 mph - N/A   Clear
12:53 PM 84.9 °F 63.0 °F 48% 29.95 in 10.0 miles SSW 8.1 mph - N/A   Clear
1:53 PM 86.0 °F 63.0 °F 46% 29.95 in 10.0 miles SSW 12.7 mph 24.2 mph N/A   Scattered Clouds
2:53 PM 88.0 °F 62.1 °F 42% 29.93 in 10.0 miles WSW 12.7 mph 19.6 mph N/A   Partly Cloudy
3:53 PM 86.0 °F 64.0 °F 48% 29.93 in 10.0 miles WSW 10.4 mph 18.4 mph N/A   Mostly Cloudy
4:30 PM 84.2 °F 64.4 °F 51% 29.97 in 10.0 miles WNW 11.5 mph - N/A   Mostly Cloudy
4:53 PM 86.0 °F 64.9 °F 49% 29.92 in 10.0 miles WNW 8.1 mph - N/A   Mostly Cloudy
5:05 PM 86.0 °F 64.4 °F 48% 29.96 in 10.0 miles WSW 11.5 mph - N/A   Mostly Cloudy
5:53 PM 86.0 °F 64.0 °F 48% 29.91 in 10.0 miles Variable 10.4 mph 19.6 mph N/A   Mostly Cloudy
6:53 PM 84.9 °F 64.0 °F 49% 29.91 in 10.0 miles WNW 11.5 mph 17.3 mph N/A   Clear
7:53 PM 84.0 °F 63.0 °F 49% 29.91 in 10.0 miles WNW 8.1 mph - N/A   Scattered Clouds
8:53 PM 82.0 °F 61.0 °F 49% 29.92 in 10.0 miles North 6.9 mph - N/A   Clear
9:53 PM 79.0 °F 64.9 °F 62% 29.95 in 10.0 miles North 6.9 mph - N/A   Clear
10:53 PM 75.9 °F 64.9 °F 69% 29.96 in 10.0 miles North 3.5 mph - N/A   Clear
11:53 PM 75.0 °F 64.9 °F 71% 29.97 in 10.0 miles North 3.5 mph - N/A   Clear

Astronomy

Sunrise: 05:53 AM (CDT) Moon Rise: 03:42 AM (CDT) 6 / 16
Sunset: 08:46 PM (CDT) Moon Set: 06:23 PM (CDT) 6 / 16
Moon Phase
Jun. 16 Jun. 19 Jun. 27 Jul. 03 Jul. 11

Powered by the Weather Underground, Inc.